DW5247 Lemo FI current weather conditions

sailwx.info

Wind from 248 at 2 knots gusting 8

Air temperature -3.3° C
Dewpoint -4.4° C

Last reported at 2017-Jan-22 11:47 UTC.
Time now 2017-Jan-22 12:17 UTC

Location: N 62°41' E 029°49'.
View on Google Maps.

See reports from other nearby stations

  
Tides and Currents Weather Stations Pressure Air Temp Water Temp Dewpoint Dewpoint Depression Visibility Wind Speed Wind Dir Waves Ship Positions
date/time (UTC)wind fromknots sea level pressurealtimeterstation pressurevisibilityair tempwater tempwave heightnotes
2017-Jan-22 11:47 248 2 gusting 8 -3.3
2017-Jan-22 11:42 180 2 gusting 8 -3.3
2017-Jan-22 11:37 180 3 gusting 8 -3.3
2017-Jan-22 11:32 180 2 gusting 5 -3.3
2017-Jan-22 11:27 158 2 gusting 5 -3.3
2017-Jan-22 11:22 203 2 gusting 5 -3.3
2017-Jan-22 11:17 180 1 gusting 4 -3.3
2017-Jan-22 11:12 180 2 gusting 5 -3.3
2017-Jan-22 11:07 180 2 gusting 5 -3.3
2017-Jan-22 11:02 225 2 gusting 7 -3.3
2017-Jan-22 10:57 203 2 gusting 7 -3.3
2017-Jan-22 10:52 180 2 gusting 7 -3.3
2017-Jan-22 10:47 180 2 gusting 5 -3.3
2017-Jan-22 10:42 180 3 gusting 6 -3.3
2017-Jan-22 10:37 180 3 gusting 6 -3.3
2017-Jan-22 10:32 180 3 gusting 6 -3.3
2017-Jan-22 10:27 180 3 gusting 6 -3.3
2017-Jan-22 10:22 225 3 gusting 6 -3.3
2017-Jan-22 10:17 180 3 gusting 6 -3.3
2017-Jan-22 10:12 158 2 gusting 6 -3.3
2017-Jan-22 10:07 158 2 gusting 3 -3.3
2017-Jan-22 10:02 158 2 gusting 3 -3.3
2017-Jan-22 09:57 203 1 gusting 2 -3.9
2017-Jan-22 09:52 180 1 gusting 3 -3.9
2017-Jan-22 09:47 158 2 gusting 3 -3.9
2017-Jan-22 09:42 203 1 gusting 3 -3.9
2017-Jan-22 09:37 180 1 gusting 3 -3.9
2017-Jan-22 09:32 203 1 gusting 2 -3.9
2017-Jan-22 09:27 180 0 gusting 3 -3.9
2017-Jan-22 09:22 068 0 gusting 3 -3.9
2017-Jan-22 09:17 248 0 gusting 3 -3.9
2017-Jan-22 09:12 203 1 gusting 3 -3.9
2017-Jan-22 09:07 180 1 gusting 3 -3.9
2017-Jan-22 09:02 203 1 gusting 3 -3.9
2017-Jan-22 08:57 203 1 gusting 3 -3.9
2017-Jan-22 08:52 158 1 gusting 2 -3.9
2017-Jan-22 08:47 203 0 gusting 3 -3.9
2017-Jan-22 08:42 180 0 gusting 3 -3.9
2017-Jan-22 08:37 203 1 gusting 3 -3.9
2017-Jan-22 08:32 203 1 gusting 2 -3.9
2017-Jan-22 08:27 225 0 gusting 2 -3.9
2017-Jan-22 08:22 180 0 gusting 4 -3.9
2017-Jan-22 08:17 203 1 gusting 4 -3.9
2017-Jan-22 08:12 225 2 gusting 4 -3.9
2017-Jan-22 08:07 248 2 gusting 4 -3.9
2017-Jan-22 08:02 225 2 gusting 4 -3.9
2017-Jan-22 07:57 180 2 gusting 2 -3.9
2017-Jan-22 07:52 203 1 gusting 2 -3.9
2017-Jan-22 07:47 203 0 gusting 2 -3.9
2017-Jan-22 07:42 248 0 gusting 3 -3.9
2017-Jan-22 07:37 180 1 gusting 3 -3.9
2017-Jan-22 07:32 180 1 gusting 3 -3.9
2017-Jan-22 07:27 158 1 gusting 3 -3.9
2017-Jan-22 07:22 158 1 gusting 3 -3.9
2017-Jan-22 07:17 180 1 gusting 5 -3.9
2017-Jan-22 07:12 180 2 gusting 5 -3.9
2017-Jan-22 07:07 180 1 gusting 5 -3.9
2017-Jan-22 07:02 180 1 gusting 2 -3.9
2017-Jan-22 06:57 248 0 gusting 5 -3.9
2017-Jan-22 06:52 135 1 gusting 5 -3.9
2017-Jan-22 06:47 225 2 gusting 5 -3.9
2017-Jan-22 06:42 225 2 gusting 4 -3.9
2017-Jan-22 06:37 158 1 gusting 5 -3.9
2017-Jan-22 06:32 203 2 gusting 5 -3.9
2017-Jan-22 06:27 203 3 gusting 5 -3.9
2017-Jan-22 06:22 180 3 gusting 4 -3.9
2017-Jan-22 06:17 113 2 gusting 3 -3.9
2017-Jan-22 06:12 180 1 gusting 3 -3.9
2017-Jan-22 06:07 203 1 gusting 4 -3.9
2017-Jan-22 06:02 180 2 gusting 4 -3.9
2017-Jan-22 05:57 158 1 gusting 3 -3.9
2017-Jan-22 05:52 158 1 gusting 3 -3.9
2017-Jan-22 05:47 180 1 gusting 2 -3.9
2017-Jan-22 05:42 180 0 gusting 2 -3.9
2017-Jan-22 05:37 180 0 gusting 3 -3.9
2017-Jan-22 05:32 158 0 gusting 3 -4.4
2017-Jan-22 05:27 180 0 gusting 3 -4.4
2017-Jan-22 05:22 180 0 gusting 3 -4.4
2017-Jan-22 05:17 180 1 gusting 3 -4.4
2017-Jan-22 05:12 203 1 gusting 4 -4.4
2017-Jan-22 05:07 158 1 gusting 4 -4.4
2017-Jan-22 05:02 203 1 gusting 4 -4.4
2017-Jan-22 04:57 158 2 gusting 5 -4.4
2017-Jan-22 04:52 158 2 gusting 5 -4.4
2017-Jan-22 04:47 180 2 gusting 5 -4.4
2017-Jan-22 04:42 180 2 gusting 3 -5.0
2017-Jan-22 04:37 180 2 gusting 3 -5.0
2017-Jan-22 04:32 180 2 gusting 4 -5.0
2017-Jan-22 04:27 158 2 gusting 4 -5.6
2017-Jan-22 04:22 180 2 gusting 4 -5.6
2017-Jan-22 04:17 180 1 gusting 1 -5.6
2017-Jan-22 04:12 180 1 gusting 4 -6.1
2017-Jan-22 04:07 203 1 gusting 4 -6.1
2017-Jan-22 04:02 203 1 gusting 4 -6.1
2017-Jan-22 03:57 180 1 gusting 3 -6.7
2017-Jan-22 03:52 158 0 -6.7
2017-Jan-22 03:47 248 -6.7
2017-Jan-22 03:42 180 -6.7
2017-Jan-22 03:37 293 -7.2
2017-Jan-22 03:32 270 -7.2
2017-Jan-22 03:27 315 -7.2
2017-Jan-22 03:22 315 0 gusting 1 -7.2
2017-Jan-22 03:17 315 -7.2
2017-Jan-22 03:12 023 -7.2
2017-Jan-22 03:07 113 -7.2
2017-Jan-22 03:02 203 -7.8
2017-Jan-22 02:57 270 -7.8
2017-Jan-22 02:52 113 -7.8
2017-Jan-22 02:47 090 -7.8
2017-Jan-22 02:42 068 -7.8
2017-Jan-22 02:37 068 -7.8
2017-Jan-22 02:32 090 -7.8
2017-Jan-22 02:27 113 -7.8
2017-Jan-22 02:22 338 -7.8
2017-Jan-22 02:17 045 -7.8
2017-Jan-22 02:12 338 -7.8
2017-Jan-22 02:07 045 -7.8
2017-Jan-22 02:02 -7.8
2017-Jan-22 01:57 338 -7.2
2017-Jan-22 01:52 338 -7.2
2017-Jan-22 01:47 338 -7.2
2017-Jan-22 01:42 315 -6.7
2017-Jan-22 01:37 293 -6.7
2017-Jan-22 01:32 225 -6.7
2017-Jan-22 01:27 203 0 gusting 2 -6.7
2017-Jan-22 01:22 135 0 gusting 2 -6.7
2017-Jan-22 01:17 158 0 gusting 2 -6.7
2017-Jan-22 01:12 270 -6.7
2017-Jan-22 01:07 135 0 gusting 3 -6.7
2017-Jan-22 01:02 135 0 gusting 3 -6.7
2017-Jan-22 00:57 225 -6.7
2017-Jan-22 00:52 158 -6.7
2017-Jan-22 00:47 135 -6.7
2017-Jan-22 00:42 113 0 gusting 1 -6.7
2017-Jan-22 00:37 113 -6.1
2017-Jan-22 00:32 180 -6.1
2017-Jan-22 00:27 135 0 gusting 4 -6.1
2017-Jan-22 00:22 180 1 gusting 6 -6.1
2017-Jan-22 00:17 158 2 gusting 6 -6.1
2017-Jan-22 00:12 135 3 gusting 4 -6.1
2017-Jan-22 00:07 158 3 gusting 4 -6.1
2017-Jan-22 00:02 135 2 gusting 4 -6.7
2017-Jan-21 23:57 068 1 gusting 3 -6.1
2017-Jan-21 23:52 180 0 gusting 3 -6.7
2017-Jan-21 23:47 203 0 gusting 3 -6.7
2017-Jan-21 23:42 180 0 gusting 3 -6.7
2017-Jan-21 23:37 158 1 gusting 3 -6.7
2017-Jan-21 23:32 293 1 gusting 5 -6.7
2017-Jan-21 23:27 180 1 gusting 6 -6.7
2017-Jan-21 23:22 225 1 gusting 6 -6.7
2017-Jan-21 23:17 158 2 gusting 6 -6.7
2017-Jan-21 23:12 180 3 gusting 5 -6.7
2017-Jan-21 23:07 045 3 gusting 5 -6.7
2017-Jan-21 23:02 180 3 gusting 5 -6.7
2017-Jan-21 22:57 203 2 gusting 5 -6.7
2017-Jan-21 22:52 180 2 gusting 4 -6.7
2017-Jan-21 22:47 158 1 gusting 3 -7.2
2017-Jan-21 22:42 248 0 gusting 3 -7.2
2017-Jan-21 22:37 203 2 gusting 4 -7.2
2017-Jan-21 22:32 180 2 gusting 4 -7.2
2017-Jan-21 22:27 158 2 gusting 6 -7.2
2017-Jan-21 22:22 180 2 gusting 6 -7.2
2017-Jan-21 22:17 180 1 gusting 5 -7.2
2017-Jan-21 22:12 135 1 gusting 5 -7.8
2017-Jan-21 22:07 135 1 gusting 5 -7.8
2017-Jan-21 21:57 158 1 gusting 3 -7.8
2017-Jan-21 21:52 158 2 gusting 3 -7.8
2017-Jan-21 21:47 203 1 gusting 2 -7.8
2017-Jan-21 21:42 180 1 gusting 3 -8.3
2017-Jan-21 21:37 203 1 gusting 5 -8.3
2017-Jan-21 21:32 203 1 gusting 5 -8.3
2017-Jan-21 21:27 180 1 gusting 4 -8.3
2017-Jan-21 21:22 180 1 gusting 4 -8.3
2017-Jan-21 21:17 158 1 gusting 4 -8.3
2017-Jan-21 21:12 158 1 gusting 2 -8.3
2017-Jan-21 21:07 158 0 gusting 2 -8.3
2017-Jan-21 21:02 203 0 gusting 2 -8.3
2017-Jan-21 20:57 180 0 gusting 2 -8.3
2017-Jan-21 20:52 203 0 gusting 2 -8.3
2017-Jan-21 20:47 158 0 gusting 2 -8.3
2017-Jan-21 20:42 180 0 gusting 1 -8.3
2017-Jan-21 20:37 203 1 gusting 3 -8.3
2017-Jan-21 20:32 113 1 gusting 4 -8.3
2017-Jan-21 20:27 180 1 gusting 4 -8.3
2017-Jan-21 20:22 135 0 gusting 4 -8.3
2017-Jan-21 20:17 180 1 gusting 4 -8.3
2017-Jan-21 20:12 158 1 gusting 4 -8.3
2017-Jan-21 20:07 158 1 gusting 2 -8.3
2017-Jan-21 20:02 180 1 gusting 2 -8.3
2017-Jan-21 19:57 248 0 gusting 1 -8.3
2017-Jan-21 19:52 203 0 gusting 4 -8.3
2017-Jan-21 19:47 158 1 gusting 4 -8.3
2017-Jan-21 19:42 180 1 gusting 4 -8.3
2017-Jan-21 19:37 158 2 gusting 3 -8.3
2017-Jan-21 19:32 135 1 gusting 3 -8.3
2017-Jan-21 19:27 135 2 gusting 3 -8.3
2017-Jan-21 19:22 135 1 gusting 5 -8.3
2017-Jan-21 19:17 135 1 gusting 5 -8.3
2017-Jan-21 19:12 158 1 gusting 5 -8.3
2017-Jan-21 19:07 158 1 gusting 5 -7.8
2017-Jan-21 19:02 158 1 gusting 3 -7.8
2017-Jan-21 18:57 135 2 gusting 3 -7.8
2017-Jan-21 18:52 180 1 gusting 3 -7.8
2017-Jan-21 18:47 180 1 gusting 2 -7.8
2017-Jan-21 18:42 180 1 gusting 3 -7.8
2017-Jan-21 18:37 180 1 gusting 3 -7.2
2017-Jan-21 18:32 180 1 gusting 4 -7.8
2017-Jan-21 18:27 158 2 gusting 7 -7.2
2017-Jan-21 18:22 158 2 gusting 7 -7.2
2017-Jan-21 18:17 180 3 gusting 7 -7.2
2017-Jan-21 18:12 180 3 gusting 6 -7.2
2017-Jan-21 18:07 180 3 gusting 7 -7.2
2017-Jan-21 18:02 180 3 gusting 7 -7.2
2017-Jan-21 17:57 225 4 gusting 6 -7.2
2017-Jan-21 17:52 158 4 gusting 8 -7.2
2017-Jan-21 17:47 180 4 gusting 8 -7.2
2017-Jan-21 17:42 180 4 gusting 6 -7.2
2017-Jan-21 17:37 203 3 gusting 6 -7.2
2017-Jan-21 17:32 203 4 gusting 6 -7.2
2017-Jan-21 17:27 248 4 gusting 7 -7.2
2017-Jan-21 17:22 180 4 gusting 7 -7.2
2017-Jan-21 17:17 180 4 gusting 8 -6.7
2017-Jan-21 17:12 158 4 gusting 8 -6.7
2017-Jan-21 17:07 180 4 gusting 6 -6.7
2017-Jan-21 17:02 180 5 gusting 6 -6.7
2017-Jan-21 16:57 180 5 gusting 7 -6.7
2017-Jan-21 16:52 315 4 gusting 9 -6.7
2017-Jan-21 16:47 225 4 gusting 9 -6.7
2017-Jan-21 16:42 248 4 gusting 10 -6.7
2017-Jan-21 16:37 180 5 gusting 10 -6.7
2017-Jan-21 16:32 180 5 gusting 10 -6.7
2017-Jan-21 16:27 158 5 gusting 9 -6.7
2017-Jan-21 16:22 180 6 gusting 9 -6.7
2017-Jan-21 16:17 180 6 gusting 7 -6.7
2017-Jan-21 16:12 158 5 gusting 8 -6.1
2017-Jan-21 16:07 203 6 gusting 9 -6.1
2017-Jan-21 16:02 203 6 gusting 9 -6.1
2017-Jan-21 15:57 158 6 gusting 9 -6.1
2017-Jan-21 15:52 158 6 gusting 9 -6.1
2017-Jan-21 15:47 158 6 gusting 9 -6.1
2017-Jan-21 15:42 180 6 gusting 9 -6.1
2017-Jan-21 15:37 180 6 gusting 9 -6.1
2017-Jan-21 15:32 203 6 gusting 9 -6.1
2017-Jan-21 15:27 180 7 gusting 9 -6.1
2017-Jan-21 15:22 180 6 gusting 10 -6.1
2017-Jan-21 15:17 180 6 gusting 10 -6.1
2017-Jan-21 15:12 180 6 gusting 9 -6.1
2017-Jan-21 15:07 180 6 gusting 9 -6.1
2017-Jan-21 15:02 203 6 gusting 9 -6.1
2017-Jan-21 14:57 180 6 gusting 8 -6.1
2017-Jan-21 14:52 180 5 gusting 8 -6.1
2017-Jan-21 14:47 180 5 gusting 6 -6.1
2017-Jan-21 14:42 180 4 gusting 6 -6.1
2017-Jan-21 14:37 158 4 gusting 9 -6.1
2017-Jan-21 14:32 180 4 gusting 9 -6.1
2017-Jan-21 14:27 180 4 gusting 9 -6.1
2017-Jan-21 14:22 180 5 gusting 7 -6.1
2017-Jan-21 14:17 180 5 gusting 7 -6.1
2017-Jan-21 14:12 158 5 gusting 6 -6.1
2017-Jan-21 14:07 158 4 gusting 6 -6.1
2017-Jan-21 14:02 180 3 gusting 6 -5.6
2017-Jan-21 13:57 180 3 gusting 6 -5.6
2017-Jan-21 13:52 180 3 gusting 6 -5.6
2017-Jan-21 13:47 180 3 gusting 6 -5.6
2017-Jan-21 13:42 180 3 gusting 5 -5.6
2017-Jan-21 13:37 180 2 gusting 5 -5.6
2017-Jan-21 13:32 158 2 gusting 5 -5.6
2017-Jan-21 13:27 180 2 gusting 3 -5.6
2017-Jan-21 13:22 180 2 gusting 3 -5.0
2017-Jan-21 13:17 135 1 gusting 4 -5.0
2017-Jan-21 13:12 180 2 gusting 4 -5.0
2017-Jan-21 13:07 180 1 gusting 4 -4.4
2017-Jan-21 13:02 225 1 gusting 8 -5.0
2017-Jan-21 12:57 180 2 gusting 8 -4.4
2017-Jan-21 12:52 203 2 gusting 5 -4.4
2017-Jan-21 12:47 158 2 gusting 5 -4.4
2017-Jan-21 12:42 203 2 gusting 7 -4.4
2017-Jan-21 12:37 158 3 gusting 7 -4.4
2017-Jan-21 12:32 248 3 gusting 3 -4.4
2017-Jan-21 12:27 180 3 gusting 4 -3.9
2017-Jan-21 12:22 135 2 gusting 5 -3.9
2017-Jan-21 12:17 203 2 gusting 5 -3.9
2017-Jan-21 12:12 180 3 gusting 5 -3.9
2017-Jan-21 12:07 248 3 gusting 5 -3.9
2017-Jan-21 12:02 203 3 gusting 5 -3.9
2017-Jan-21 11:57 158 3 gusting 5 -3.9
2017-Jan-21 11:52 180 3 gusting 5 -3.9
2017-Jan-21 11:47 203 2 gusting 5 -3.9
2017-Jan-21 11:42 203 2 gusting 5 -3.9
2017-Jan-21 11:37 158 2 gusting 6 -3.9
2017-Jan-21 11:32 158 3 gusting 6 -3.9
2017-Jan-21 11:27 180 3 gusting 7 -3.9
2017-Jan-21 11:22 180 3 gusting 7 -3.9
2017-Jan-21 11:17 225 4 gusting 6 -3.9
2017-Jan-21 11:12 180 3 gusting 6 -3.9
2017-Jan-21 11:07 158 3 gusting 7 -4.4
2017-Jan-21 11:02 203 3 gusting 7 -3.9
2017-Jan-21 10:57 248 3 gusting 7 -4.4
2017-Jan-21 10:52 203 3 gusting 6 -4.4
2017-Jan-21 10:47 180 3 gusting 6 -4.4
2017-Jan-21 10:42 225 2 gusting 5 -4.4
2017-Jan-21 10:37 225 2 gusting 5 -4.4
2017-Jan-21 10:32 270 2 gusting 5 -4.4
2017-Jan-21 10:27 203 2 gusting 5 -4.4
2017-Jan-21 10:22 180 2 gusting 5 -4.4
2017-Jan-21 10:17 113 2 gusting 5 -4.4
2017-Jan-21 10:12 180 3 gusting 5 -5.0
2017-Jan-21 10:07 180 3 gusting 5 -5.0
2017-Jan-21 10:02 180 3 gusting 7 -5.0
2017-Jan-21 09:57 203 4 gusting 7 -5.0
2017-Jan-21 09:52 203 3 gusting 7 -5.6
2017-Jan-21 09:47 203 4 gusting 6 -5.6
2017-Jan-21 09:42 225 4 gusting 6 -5.6
2017-Jan-21 09:37 158 3 gusting 6 -5.6
2017-Jan-21 09:32 158 3 gusting 6 -5.6
2017-Jan-21 09:27 135 3 gusting 6 -5.6
2017-Jan-21 09:22 225 3 gusting 6 -5.6
2017-Jan-21 09:17 225 3 gusting 5 -6.1
2017-Jan-21 09:12 225 3 gusting 5 -6.1
2017-Jan-21 09:07 203 3 gusting 5 -6.1
2017-Jan-21 09:02 225 3 gusting 5 -6.1
2017-Jan-21 08:57 203 3 gusting 6 -6.1
2017-Jan-21 08:52 203 2 gusting 6 -6.1
2017-Jan-21 08:47 203 2 gusting 6 -6.7
2017-Jan-21 08:42 248 2 gusting 6 -6.7
2017-Jan-21 08:37 248 2 gusting 6 -6.7
2017-Jan-21 08:32 203 2 gusting 6 -6.7
2017-Jan-21 08:27 203 2 gusting 7 -6.7
2017-Jan-21 08:22 248 3 gusting 7 -6.7
2017-Jan-21 08:17 248 2 gusting 7 -6.7
2017-Jan-21 08:12 203 1 gusting 4 -6.7
2017-Jan-21 08:07 180 1 gusting 5 -6.7
2017-Jan-21 08:02 203 1 gusting 5 -6.7
2017-Jan-21 07:57 180 1 gusting 5 -6.7
2017-Jan-21 07:52 248 1 gusting 3 -6.7
2017-Jan-21 07:47 225 1 gusting 3 -6.1
2017-Jan-21 07:42 180 2 gusting 3 -6.7
2017-Jan-21 07:37 225 1 gusting 3 -6.7
2017-Jan-21 07:32 180 1 gusting 3 -6.1
2017-Jan-21 07:27 248 0 gusting 6 -6.7
2017-Jan-21 07:22 270 1 gusting 6 -6.7
2017-Jan-21 07:17 180 3 gusting 6 -6.1
2017-Jan-21 07:12 180 4 gusting 6 -6.7
2017-Jan-21 07:07 180 3 gusting 7 -6.7
2017-Jan-21 07:02 158 3 gusting 7 -6.7
2017-Jan-21 06:57 203 3 gusting 7 -6.7
2017-Jan-21 06:52 180 3 gusting 7 -6.7
2017-Jan-21 06:47 135 3 gusting 7 -6.7
2017-Jan-21 06:42 135 2 gusting 4 -6.7
2017-Jan-21 06:37 203 2 gusting 4 -6.7
2017-Jan-21 06:32 203 2 gusting 4 -6.7
2017-Jan-21 06:27 158 1 gusting 6 -6.7
2017-Jan-21 06:22 158 1 gusting 6 -6.7
2017-Jan-21 06:17 158 2 gusting 6 -6.7
2017-Jan-21 06:12 180 2 gusting 6 -6.7
2017-Jan-21 06:07 158 3 gusting 6 -6.7
2017-Jan-21 06:02 180 4 gusting 6 -6.7
2017-Jan-21 05:57 180 4 gusting 6 -6.1
2017-Jan-21 05:52 180 5 gusting 6 -6.7
2017-Jan-21 05:47 158 4 gusting 5 -6.7
2017-Jan-21 05:42 180 2 gusting 3 -6.1
2017-Jan-21 05:37 180 1 gusting 2 -6.7
2017-Jan-21 05:32 225 0 gusting 6 -6.1
2017-Jan-21 05:27 225 0 gusting 6 -6.1
2017-Jan-21 05:22 203 0 gusting 5 -6.1
2017-Jan-21 05:17 135 1 gusting 6 -6.1
2017-Jan-21 05:12 203 1 gusting 6 -6.1
2017-Jan-21 05:07 180 2 gusting 6 -6.1
2017-Jan-21 05:02 180 2 gusting 6 -6.1
2017-Jan-21 04:57 158 2 gusting 5 -6.1
2017-Jan-21 04:52 203 3 gusting 8 -6.1
2017-Jan-21 04:47 158 5 gusting 8 -6.1
2017-Jan-21 04:42 158 5 gusting 8 -6.1
2017-Jan-21 04:37 180 4 gusting 8 -6.1
2017-Jan-21 04:32 180 4 gusting 7 -6.1
2017-Jan-21 04:27 158 3 gusting 12 -6.1
2017-Jan-21 04:22 180 3 gusting 12 -6.1
2017-Jan-21 04:17 180 5 gusting 12 -6.1
2017-Jan-21 04:12 158 5 gusting 7 -6.1
2017-Jan-21 04:07 158 4 gusting 7 -6.1
2017-Jan-21 04:02 180 4 gusting 6 -6.7
2017-Jan-21 03:57 180 3 gusting 6 -6.7
2017-Jan-21 03:52 180 2 gusting 6 -6.7
2017-Jan-21 03:47 180 3 gusting 6 -6.7
2017-Jan-21 03:42 158 3 gusting 6 -6.7
2017-Jan-21 03:37 135 3 gusting 4 -6.7
2017-Jan-21 03:32 180 2 gusting 4 -6.7
2017-Jan-21 03:27 158 2 gusting 4 -6.7
2017-Jan-21 03:22 180 2 gusting 3 -6.7
2017-Jan-21 03:17 135 2 gusting 3 -6.7
2017-Jan-21 03:12 158 1 gusting 2 -6.7
2017-Jan-21 03:07 158 0 gusting 1 -6.7
2017-Jan-21 03:02 158 0 gusting 1 -6.7
2017-Jan-21 02:57 158 0 gusting 1 -6.7
2017-Jan-21 02:52 180 0 gusting 1 -6.7
2017-Jan-21 02:47 158 0 gusting 5 -6.7
2017-Jan-21 02:42 113 1 gusting 5 -6.7
2017-Jan-21 02:37 135 1 gusting 3 -6.7
2017-Jan-21 02:32 180 1 gusting 4 -6.7
2017-Jan-21 02:27 158 2 gusting 4 -6.7
2017-Jan-21 02:22 158 2 gusting 3 -6.7
2017-Jan-21 02:17 180 2 gusting 6 -6.7
2017-Jan-21 02:12 158 2 gusting 6 -6.7
2017-Jan-21 02:07 113 1 gusting 6 -6.7
2017-Jan-21 02:02 180 1 gusting 2 -6.7
2017-Jan-21 01:57 203 1 gusting 2 -6.7
2017-Jan-21 01:52 135 1 gusting 2 -6.7
2017-Jan-21 01:47 158 1 gusting 2 -6.7
2017-Jan-21 01:42 135 1 gusting 3 -6.7
2017-Jan-21 01:37 158 1 gusting 3 -6.1
2017-Jan-21 01:32 158 0 gusting 3 -6.1
2017-Jan-21 01:27 135 0 gusting 3 -6.1
2017-Jan-21 01:22 090 0 gusting 3 -6.1
2017-Jan-21 01:17 135 1 gusting 3 -6.1
2017-Jan-21 01:12 135 1 gusting 6 -6.1
2017-Jan-21 01:07 338 2 gusting 6 -6.1
2017-Jan-21 01:02 180 2 gusting 6 -6.1
2017-Jan-21 00:57 225 2 gusting 5 -6.1
2017-Jan-21 00:52 135 2 gusting 5 -6.1
2017-Jan-21 00:47 203 2 gusting 3 -6.1
2017-Jan-21 00:42 158 1 gusting 3 -5.6
2017-Jan-21 00:37 225 0 gusting 2 -5.6
2017-Jan-21 00:32 248 0 gusting 3 -5.6
2017-Jan-21 00:27 270 1 gusting 6 -5.6
2017-Jan-21 00:22 158 2 gusting 6 -5.6
2017-Jan-21 00:17 270 2 gusting 6 -5.6
2017-Jan-21 00:12 225 3 gusting 6 -5.6
2017-Jan-21 00:07 180 3 gusting 7 -5.6
2017-Jan-21 00:02 158 4 gusting 7 -5.6
2017-Jan-20 23:57 180 4 gusting 8 -5.6
2017-Jan-20 23:52 158 4 gusting 12 -5.6
2017-Jan-20 23:47 180 5 gusting 12 -5.0
2017-Jan-20 23:42 180 5 gusting 12 -5.0
2017-Jan-20 23:37 158 4 gusting 6 -5.0
2017-Jan-20 23:32 180 5 gusting 9 -5.0
2017-Jan-20 23:27 180 6 gusting 10 -5.0
2017-Jan-20 23:22 225 6 gusting 10 -5.0
2017-Jan-20 23:17 158 5 gusting 8 -5.6
2017-Jan-20 23:12 158 4 gusting 6 -5.0
2017-Jan-20 23:07 180 4 gusting 6 -5.0
2017-Jan-20 23:02 225 4 gusting 8 -5.0
2017-Jan-20 22:57 158 4 gusting 8 -5.0
2017-Jan-20 22:52 203 5 gusting 14 -5.0
2017-Jan-20 22:47 135 6 gusting 14 -5.0
2017-Jan-20 22:42 180 6 gusting 10 -5.0
2017-Jan-20 22:37 203 5 gusting 10 -5.6
2017-Jan-20 22:32 158 5 gusting 10 -5.6
2017-Jan-20 22:27 180 5 gusting 8 -5.0
2017-Jan-20 22:22 135 4 gusting 8 -5.0
2017-Jan-20 22:17 180 5 gusting 7 -5.0
2017-Jan-20 22:12 158 6 gusting 8 -5.0
2017-Jan-20 22:06 158 6 gusting 9 -5.0
2017-Jan-20 21:57 180 5 gusting 9 -5.0
2017-Jan-20 21:52 135 5 gusting 10 -5.0
2017-Jan-20 21:47 180 6 gusting 10 -5.0
2017-Jan-20 21:42 180 5 gusting 10 -5.0
2017-Jan-20 21:37 158 5 gusting 7 -5.0
2017-Jan-20 21:32 180 6 gusting 7 -5.0
2017-Jan-20 21:27 180 6 gusting 7 -5.0
2017-Jan-20 21:22 158 5 gusting 7 -5.0
2017-Jan-20 21:17 180 4 gusting 7 -5.0
2017-Jan-20 21:12 180 3 gusting 6 -5.0
2017-Jan-20 21:07 180 3 gusting 6 -5.0
2017-Jan-20 21:02 180 3 gusting 8 -5.0
2017-Jan-20 20:57 180 4 gusting 8 -5.0
2017-Jan-20 20:52 180 5 gusting 8 -5.0
2017-Jan-20 20:47 203 5 gusting 8 -5.0
2017-Jan-20 20:42 023 3 gusting 6 -5.0
2017-Jan-20 20:37 180 3 gusting 5 -5.0
2017-Jan-20 20:32 180 3 gusting 8 -5.0
2017-Jan-20 20:27 158 3 gusting 8 -5.0
2017-Jan-20 20:22 180 3 gusting 8 -5.0
2017-Jan-20 20:17 180 3 gusting 6 -5.0
2017-Jan-20 20:12 180 3 gusting 5 -5.0
2017-Jan-20 20:07 180 3 gusting 7 -5.0
2017-Jan-20 20:02 180 3 gusting 7 -4.4
2017-Jan-20 19:57 180 4 gusting 7 -4.4
2017-Jan-20 19:52 180 4 gusting 8 -4.4
2017-Jan-20 19:47 158 4 gusting 8 -4.4
2017-Jan-20 19:42 180 5 gusting 8 -4.4
2017-Jan-20 19:37 -4.4
2017-Jan-20 19:32 158 5 gusting 9 -4.4
2017-Jan-20 19:27 180 4 gusting 9 -4.4
2017-Jan-20 19:22 225 4 gusting 13 -4.4
2017-Jan-20 19:17 180 3 gusting 13 -4.4
2017-Jan-20 19:12 180 4 gusting 13 -4.4
2017-Jan-20 19:07 225 4 gusting 10 -4.4
2017-Jan-20 19:02 180 5 gusting 7 -4.4
2017-Jan-20 18:57 180 4 gusting 5 -4.4
2017-Jan-20 18:52 180 3 gusting 5 -4.4
2017-Jan-20 18:47 180 3 gusting 3 -4.4
2017-Jan-20 18:42 180 2 gusting 6 -4.4
2017-Jan-20 18:37 203 2 gusting 6 -4.4
2017-Jan-20 18:32 158 3 gusting 6 -4.4
2017-Jan-20 18:27 180 4 gusting 6 -4.4
2017-Jan-20 18:22 158 4 gusting 6 -3.9
2017-Jan-20 18:17 158 3 gusting 6 -3.9
2017-Jan-20 18:12 203 3 gusting 9 -3.9
2017-Jan-20 18:07 180 4 gusting 9 -3.9
2017-Jan-20 18:02 203 4 gusting 9 -3.9
2017-Jan-20 17:57 158 4 gusting 12 -3.9
2017-Jan-20 17:52 158 6 gusting 12 -3.9
2017-Jan-20 17:47 180 6 gusting 13 -3.9
2017-Jan-20 17:42 180 6 gusting 13 -3.9
2017-Jan-20 17:37 180 6 gusting 13 -3.9
2017-Jan-20 17:32 158 6 gusting 8 -3.9
2017-Jan-20 17:27 158 6 gusting 9 -3.9
2017-Jan-20 17:22 180 6 gusting 12 -3.9
2017-Jan-20 17:17 180 6 gusting 12 -3.9
2017-Jan-20 17:12 180 6 gusting 12 -3.9
2017-Jan-20 17:07 135 6 gusting 11 -3.9
2017-Jan-20 17:02 158 6 gusting 11 -3.9
2017-Jan-20 16:57 158 5 gusting 7 -3.9
2017-Jan-20 16:52 180 5 gusting 9 -3.9
2017-Jan-20 16:47 135 5 gusting 10 -3.9
2017-Jan-20 16:42 180 5 gusting 13 -3.9
2017-Jan-20 16:37 180 6 gusting 13 -3.9
2017-Jan-20 16:32 135 5 gusting 13 -4.4
2017-Jan-20 16:27 158 5 gusting 6 -4.4
2017-Jan-20 16:22 135 4 gusting 6 -4.4
2017-Jan-20 16:17 180 4 gusting 6 -4.4
2017-Jan-20 16:12 158 4 gusting 12 -4.4
2017-Jan-20 16:07 135 5 gusting 12 -4.4
2017-Jan-20 16:02 158 5 gusting 12 -4.4
2017-Jan-20 15:57 158 6 gusting 10 -4.4
2017-Jan-20 15:52 135 6 gusting 8 -4.4
2017-Jan-20 15:47 113 5 gusting 7 -5.0
2017-Jan-20 15:42 135 5 gusting 6 -5.0
2017-Jan-20 15:37 135 3 gusting 6 -5.0
2017-Jan-20 15:32 135 3 gusting 5 -5.0
2017-Jan-20 15:27 135 3 gusting 4 -5.0
2017-Jan-20 15:22 135 3 gusting 7 -5.0
2017-Jan-20 15:17 158 3 gusting 7 -5.0
2017-Jan-20 15:12 158 3 gusting 7 -5.0
2017-Jan-20 15:07 135 3 gusting 6 -5.0
2017-Jan-20 15:02 135 3 gusting 6 -5.0
2017-Jan-20 14:57 158 3 gusting 6 -5.0
2017-Jan-20 14:52 135 3 gusting 6 -5.0
2017-Jan-20 14:47 113 3 gusting 4 -5.0
2017-Jan-20 14:42 158 3 gusting 6 -5.0
2017-Jan-20 14:37 135 3 gusting 6 -5.0
2017-Jan-20 14:32 135 3 gusting 6 -5.0
2017-Jan-20 14:27 090 3 gusting 5 -5.0
2017-Jan-20 14:22 090 3 gusting 4 -5.0
2017-Jan-20 14:17 135 3 gusting 4 -4.4
2017-Jan-20 14:12 113 3 gusting 6 -4.4
2017-Jan-20 14:07 158 3 gusting 6 -4.4
2017-Jan-20 14:02 113 3 gusting 3 -4.4
2017-Jan-20 13:57 135 2 gusting 7 -4.4
2017-Jan-20 13:52 113 2 gusting 7 -4.4
2017-Jan-20 13:47 158 3 gusting 7 -4.4
2017-Jan-20 13:42 180 3 gusting 6 -4.4
2017-Jan-20 13:37 090 2 gusting 6 -3.9
2017-Jan-20 13:32 090 2 gusting 4 -3.9
2017-Jan-20 13:27 113 1 gusting 4 -3.9
2017-Jan-20 13:22 113 2 gusting 4 -3.9
2017-Jan-20 13:17 135 2 gusting 5 -3.9
2017-Jan-20 13:12 135 1 gusting 5 -3.9
2017-Jan-20 13:07 090 1 gusting 5 -3.3
2017-Jan-20 13:02 113 1 gusting 3 -3.3
2017-Jan-20 12:57 090 2 gusting 4 -3.3
2017-Jan-20 12:52 068 2 gusting 5 -3.3
2017-Jan-20 12:47 158 2 gusting 5 -3.3
2017-Jan-20 12:42 113 3 gusting 8 -3.3
2017-Jan-20 12:37 090 3 gusting 8 -3.3
2017-Jan-20 12:32 180 3 gusting 8 -3.3
2017-Jan-20 12:27 135 4 gusting 9 -3.3
2017-Jan-20 12:22 135 4 gusting 11 -3.3
2017-Jan-20 12:17 068 5 gusting 11 -2.8
2017-Jan-20 12:12 135 5 gusting 11 -2.8
2017-Jan-20 12:07 180 4 gusting 9 -2.8
2017-Jan-20 12:02 135 5 gusting 9 -2.8